Total_Precipitation_Accumulation
3.00 3.33 3.93 3.47 2.80 2.67 2.58 2.45 2.34 2.26 2.36 2.39 2.41 2.32 2.25 2.39 2.61 2.83 3.03 3.24 3.33 3.25 3.12 3.25 3.41 3.55 3.36 3.21 3.01 2.78 2.61 2.35 2.29 2.26 2.17 2.13 2.04 2.18 2.58 2.75 2.83 2.10 1.96
2.31 2.69 3.38 3.15 2.62 2.44 2.32 2.23 2.23 2.32 2.33 2.32 2.48 2.42 2.48 2.60 2.73 2.88 3.17 3.21 3.04 2.87 2.84 2.98 3.15 3.13 2.98 2.77 2.70 2.63 2.62 2.60 2.52 2.68 2.60 2.32 2.18 2.28 2.53 2.62 2.71 1.96 1.88
1.82 2.15 2.60 2.75 2.33 2.07 2.07 2.05 2.11 2.26 2.24 2.26 2.33 2.38 2.45 2.64 2.89 3.09 3.09 2.86 2.71 2.60 2.49 2.63 2.74 2.60 2.47 2.23 2.34 2.45 2.57 2.75 2.90 3.18 3.43 2.43 1.96 2.29 2.29 2.22 2.05 1.86 1.77
1.58 1.77 2.15 2.52 2.22 1.91 1.97 2.01 2.14 2.19 2.15 2.18 2.26 2.34 2.51 2.79 2.99 2.99 2.80 2.63 2.57 2.43 2.34 2.36 2.47 2.33 2.07 1.92 2.08 2.29 2.46 2.58 2.82 3.29 3.26 2.31 1.78 1.96 2.02 1.96 1.82 1.85 1.75
1.55 1.71 2.19 2.48 2.30 2.10 2.07 2.14 2.12 2.06 2.06 2.20 2.37 2.56 2.84 2.89 2.91 2.76 2.55 2.41 2.29 2.15 2.15 2.17 2.32 2.25 2.02 1.92 1.97 2.10 2.33 2.56 2.96 2.92 2.35 2.40 2.23 2.15 1.95 1.89 1.86 1.81 1.63
1.59 1.76 2.03 2.28 2.21 2.14 2.00 2.00 2.10 2.18 2.23 2.37 2.37 2.52 2.72 2.69 2.70 2.54 2.28 2.13 2.05 1.91 1.91 2.06 2.26 2.27 2.06 1.97 1.96 2.02 2.36 2.71 2.72 2.14 2.00 2.13 2.25 2.33 2.14 2.12 2.05 1.88 1.67
1.48 1.69 1.81 2.16 2.31 2.24 2.13 2.16 2.21 2.23 2.30 2.35 2.28 2.36 2.40 2.44 2.48 2.29 2.02 1.97 1.94 1.75 1.75 2.09 2.30 2.23 1.97 1.89 1.95 2.03 2.41 2.70 2.11 1.71 1.70 1.89 2.08 2.19 2.35 2.52 2.50 2.22 1.89
1.45 1.59 1.72 2.08 2.32 2.39 2.30 2.31 2.28 2.30 2.40 2.32 2.22 2.26 2.17 2.04 2.14 2.06 1.85 1.84 1.83 1.79 1.93 2.22 2.30 2.11 1.91 1.88 2.00 2.06 2.23 2.21 1.59 1.49 1.38 1.49 1.65 1.88 2.22 2.49 2.61 2.45 2.24
1.51 1.57 1.87 2.13 2.15 2.18 2.43 2.43 2.40 2.37 2.47 2.43 2.27 2.19 2.05 1.85 1.81 1.76 1.81 1.87 1.81 1.97 2.19 2.39 2.35 2.18 1.94 1.94 2.02 2.11 2.23 2.28 1.84 1.62 1.36 1.42 1.54 1.95 2.50 2.58 2.56 2.47 2.41
1.81 1.68 1.85 2.01 1.92 1.85 1.99 2.27 2.31 2.19 2.17 2.22 2.23 2.12 2.16 2.08 1.90 1.86 1.84 1.90 1.98 2.11 2.46 2.61 2.51 2.34 2.04 2.01 2.12 2.29 2.39 2.25 2.08 1.78 1.57 1.41 1.59 2.03 2.50 2.67 2.66 2.65 2.46
2.04 1.93 1.83 1.75 1.71 1.70 1.62 1.88 2.15 2.21 2.18 2.22 2.26 2.20 2.26 2.36 2.12 2.15 2.09 2.34 2.43 2.42 2.73 2.96 2.97 2.69 2.36 2.20 2.34 2.55 2.36 2.30 2.26 1.99 1.69 1.44 1.68 2.05 2.45 2.58 2.57 2.62 2.51
2.27 2.03 1.96 1.86 1.67 1.49 1.46 1.77 2.12 2.00 2.10 2.26 2.43 2.36 2.43 2.68 2.75 2.22 2.48 2.95 3.11 3.14 3.27 3.47 3.53 2.97 2.48 2.30 2.77 2.99 2.31 2.19 2.20 2.06 1.89 1.79 2.01 2.30 2.61 2.56 2.51 2.57 2.44
2.60 2.34 2.24 2.07 1.80 1.54 1.69 1.60 1.82 2.05 2.28 2.43 2.42 2.42 2.53 2.41 2.35 2.33 2.70 3.19 3.39 3.39 3.37 3.57 3.48 2.93 2.90 3.02 2.97 2.75 2.25 2.41 2.41 2.30 2.22 2.29 2.40 2.73 3.13 2.90 2.63 2.64 2.57
2.72 2.59 2.63 2.30 2.17 2.19 1.98 1.68 1.58 1.65 1.89 2.23 2.55 2.50 2.63 2.91 2.92 2.84 3.01 3.12 3.35 3.54 3.84 3.57 3.61 3.42 3.36 3.19 3.03 2.86 2.61 2.74 2.67 2.81 2.64 2.38 2.48 2.91 3.47 3.49 3.08 2.83 2.68
2.68 2.71 2.80 2.64 2.47 2.52 2.26 2.01 1.78 1.91 1.93 2.06 2.33 2.57 2.67 3.07 3.36 3.29 3.21 3.25 3.24 3.22 3.36 3.42 3.32 3.61 3.78 3.37 2.95 2.76 2.78 2.88 2.79 2.81 2.66 2.47 2.45 2.69 3.19 3.51 3.46 3.28 3.05
2.93 3.00 2.85 2.83 2.81 2.77 2.65 2.58 2.49 2.23 2.33 2.29 2.34 2.42 2.61 3.04 3.46 3.58 3.45 3.37 3.16 3.05 3.13 3.25 3.38 3.81 3.78 3.61 3.21 2.92 2.79 2.77 2.61 2.54 2.64 2.82 2.66 2.57 2.77 3.20 3.63 3.66 3.59
3.25 3.31 3.32 3.29 3.43 3.38 3.20 3.07 2.84 2.63 2.51 2.54 2.67 2.76 2.73 2.91 3.28 3.29 3.14 3.01 2.97 3.03 3.22 3.24 3.43 3.63 3.34 3.37 3.22 2.97 2.71 2.49 2.34 2.33 2.51 2.71 2.59 2.57 2.78 3.06 3.39 3.62 3.84
3.43 3.63 3.81 3.76 3.81 3.66 3.66 3.62 3.33 3.08 2.91 2.78 2.75 2.81 2.66 2.69 2.87 3.18 2.98 2.86 3.14 3.12 3.25 3.54 3.69 3.63 3.60 3.63 3.34 2.93 2.67 2.55 2.17 2.07 2.05 2.24 2.49 2.28 2.63 2.96 3.09 3.27 3.74
3.82 4.12 4.35 4.36 4.23 3.96 3.99 3.95 3.77 3.63 3.34 2.99 2.83 2.77 2.65 2.65 2.80 3.15 3.18 3.27 3.30 3.42 3.45 3.26 3.70 3.78 3.70 3.73 3.25 3.00 2.64 2.36 2.17 1.97 1.88 1.85 2.09 2.31 2.46 2.58 2.75 2.95 3.51
4.30 4.72 4.59 4.56 4.77 4.63 4.47 4.35 4.06 3.60 3.17 3.02 2.99 2.82 2.69 2.77 2.89 3.33 3.21 3.19 3.25 3.46 3.57 3.53 3.68 3.73 3.47 3.45 3.07 2.99 2.56 2.07 1.97 1.91 1.74 1.75 1.88 1.94 2.29 2.64 2.95 2.69 3.05
4.37 4.78 4.96 5.01 4.91 4.74 4.40 4.09 3.86 3.61 3.40 3.14 2.95 2.85 2.77 2.70 2.91 3.40 3.19 3.47 3.40 3.42 3.47 3.51 3.67 3.58 3.27 3.46 3.56 3.12 2.49 2.04 2.00 1.76 1.70 1.76 1.83 1.84 2.22 2.70 3.00 2.94 2.66
4.01 4.47 4.80 4.98 4.86 4.47 4.13 3.98 3.88 3.83 3.43 3.15 3.13 3.26 3.07 3.08 3.13 3.18 3.42 3.37 3.41 3.58 3.54 3.51 3.68 3.45 3.08 3.35 3.74 3.81 3.08 2.63 2.13 1.60 1.72 1.84 2.03 2.12 2.20 2.36 2.58 2.87 2.88
3.57 3.87 3.98 4.17 4.13 3.97 4.02 4.05 4.02 4.04 3.63 3.56 3.57 3.57 3.36 3.35 3.36 3.36 3.35 3.27 3.29 3.13 3.24 3.33 3.36 3.37 3.30 3.23 3.54 3.90 3.47 2.97 2.53 1.89 1.77 1.80 2.07 2.40 2.40 2.43 2.49 2.77 2.96
3.16 3.47 3.69 3.75 3.70 3.63 3.75 3.83 3.74 3.56 3.45 3.61 3.89 3.82 3.54 3.32 3.19 3.01 2.96 3.14 3.16 2.96 3.03 2.68 2.86 3.07 3.07 2.92 3.21 3.27 3.30 3.30 3.19 2.48 2.02 1.83 1.99 2.21 2.35 2.30 2.36 2.63 2.96
2.83 3.11 3.31 3.56 3.65 3.59 3.67 3.67 3.71 3.55 3.54 3.60 3.61 3.67 3.47 3.28 2.97 2.63 2.66 2.89 2.85 2.75 2.66 2.56 2.76 2.61 2.53 2.61 2.86 3.06 3.14 3.23 3.09 2.90 2.45 2.39 2.35 2.21 2.15 2.21 2.43 2.62 2.85
2.50 2.64 2.74 2.96 3.22 3.40 3.44 3.41 3.46 3.42 3.41 3.38 3.37 3.27 3.07 2.91 2.71 2.40 2.29 2.47 2.58 2.62 2.57 2.53 2.61 2.51 2.55 2.69 2.70 2.78 3.02 3.01 2.98 3.12 2.67 2.51 2.53 2.26 2.20 2.32 2.37 2.60 2.71